Погода в Новаре

Италия     45°26′06″N   8°36′41″E
темп.,
°C
ветер,
м/с
пор.,
м/с
влажн.,
%
обл.,
%
осадки,
мм/ч
давл.,
гПа
погр.,
м
22 апреля, чт
чт2223:00+10з238011 0.6 101942
02:00+9зсз11845 0.6 101919
05:00+8ссз11845 0.0 101915
08:00+9ссв12735 0.0 1020104
11:00+15ююв10564 0.0 1020744
14:00+18ююз11424 0.0 10181682
17:00+19ююз21380 0.0 10161664
20:00+16ю23535 0.0 101653
23 апреля, пт
пт2323:00+13св01645 0.0 101916
02:00+11ссв237329 0.0 102040
05:00+11св2475100 0.0 1020126
08:00+12св2474100 0.0 1022221
11:00+13в236985 0.0 1023609
14:00+17вюв325115 0.0 10221331
17:00+19ююв22430 0.0 10211538
20:00+15ююв23610 0.0 102176
24 апреля, сб
сб2423:00+12ссв01754 0.0 102312
02:00+11с22800 0.0 102316
05:00+10с11830 0.0 102311
08:00+12сз01760 0.0 1023100
11:00+17ююв11595 0.0 1022820
14:00+20ююв224644 0.0 10211841
17:00+21ююв114192 0.0 10182030
20:00+18ююв24595 0.0 1018107
25 апреля, вс
вс2523:00+14всв007189 0.0 101919
02:00+13ссв2276100 0.0 101915
05:00+12ссв2379100 0.0 101841
08:00+13св117368 0.0 1019125
11:00+18юв21575 0.0 1018806
14:00+21ю224829 0.0 10171497
17:00+22ююв324475 0.0 10151816
20:00+18ююв3561100 0.1 1015119
26 апреля, пн
пн2623:00+14юв1257100 0.1 101638
02:00+13св237297 0.4 101666
05:00+14св2482100 0.0 1015247
08:00+13св2474100 0.2 1015427
11:00+12всв2374100 1.0 1015531
14:00+12всв3483100 2.1 1014388
17:00+12вюв2285100 0.3 1012322
20:00+11всв1195100 3.4 1012126